This demonstration page uses our WeatherBlox Daily Observations layout. Learn more.

Left ArrowRight Arrow

Hourly Observations for April 11, 2015

Temp ( °F °C ) Dew Point ( °F °C ) Humidity (%) Winds ( mph kmh ) Pressure ( in mb ) Visibility ( mi km ) Precip ( " mm )
12:15 am 00:15 Clear 45 7 23 -5 42 42 NW 8 13 30.18 1022 10 16.0934 N/A
12:36 am 00:36 Clear 43 6 25 -4 49 49 NNW 8 13 30.18 1022 10 16.0934 N/A
12:56 am 00:56 Clear 43 6 27 -3 53 53 NNW 6 9 30.18 1022 10 16.0934 N/A
1:15 am 01:15 Clear 43 6 28 -2 57 57 N 9 15 30.21 1023 10 16.0934 N/A
1:36 am 01:36 Clear 41 5 30 -1 66 66 NNW 6 9 30.21 1023 10 16.0934 N/A
1:56 am 01:56 Clear 41 5 30 -1 66 66 NW 5 7 30.21 1023 10 16.0934 N/A
2:16 am 02:16 Clear 39 4 30 -1 70 70 NW 3 6 30.24 1024 10 16.0934 N/A
2:36 am 02:36 Clear 41 5 30 -1 66 66 NW 3 6 30.21 1023 10 16.0934 N/A
2:56 am 02:56 Clear 41 5 30 -1 66 66 NW 3 6 30.21 1023 10 16.0934 N/A
3:16 am 03:16 Clear 41 5 30 -1 66 66 WNW 3 6 30.21 1023 10 16.0934 N/A
3:36 am 03:36 Clear 39 4 30 -1 70 70 W 3 6 30.24 1024 10 16.0934 N/A
3:55 am 03:55 Clear 39 4 30 -1 70 70 W 3 6 30.24 1024 10 16.0934 N/A
4:16 am 04:16 Clear 37 3 32 0 81 81 Calm 30.24 1024 10 16.0934 N/A
4:36 am 04:36 Clear 37 3 36 2 93 93 NW 3 6 30.24 1024 10 16.0934 N/A
4:55 am 04:55 Clear 36 2 36 2 100 100 NNW 5 7 30.24 1024 10 16.0934 N/A
5:16 am 05:16 Clear 36 2 N/A N/A NNW 3 6 30.24 1024 10 16.0934 N/A
5:36 am 05:36 Clear 36 2 N/A N/A Calm 30.24 1024 10 16.0934 N/A
5:55 am 05:55 Clear 37 3 N/A N/A Calm 30.24 1024 10 16.0934 N/A
6:16 am 06:16 Clear 36 2 N/A N/A Calm 30.24 1024 10 16.0934 N/A
6:36 am 06:36 Clear 34 1 N/A N/A Calm 30.27 1025 7 11.26538 N/A
6:55 am 06:55 Clear 34 1 N/A N/A SSW 5 7 30.27 1025 7 11.26538 N/A
7:16 am 07:16 Sunny 36 2 N/A N/A Calm 30.27 1025 7 11.26538 N/A
7:36 am 07:36 Sunny 37 3 N/A N/A Calm 30.27 1025 7 11.26538 N/A
7:55 am 07:55 Sunny 37 3 N/A N/A Calm 30.3 1026 7 11.26538 N/A
8:16 am 08:16 Sunny 37 3 N/A N/A Calm 30.3 1026 7 11.26538 N/A
8:35 am 08:35 Sunny 41 5 N/A N/A Calm 30.3 1026 7 11.26538 N/A
8:56 am 08:56 Sunny 43 6 43 6 100 100 N 3 6 30.3 1026 7 11.26538 N/A
9:16 am 09:16 Sunny 45 7 34 1 66 66 NNE 6 9 30.3 1026 10 16.0934 N/A
9:35 am 09:35 Sunny 46 8 32 0 57 57 NNE 3 6 30.3 1026 10 16.0934 N/A
9:56 am 09:56 Sunny 46 8 32 0 57 57 NNE 5 7 30.3 1026 10 16.0934 N/A
10:16 am 10:16 Sunny 48 9 30 -1 50 50 Calm 30.3 1026 10 16.0934 N/A
10:35 am 10:35 Sunny 50 10 32 0 50 50 NE 5 7 30.3 1026 10 16.0934 N/A
10:56 am 10:56 Sunny 50 10 30 -1 47 47 SE 3 6 30.3 1026 10 16.0934 N/A
11:16 am 11:16 Sunny 50 10 27 -3 40 40 Calm 30.3 1026 10 16.0934 N/A
11:35 am 11:35 Sunny 52 11 27 -3 38 38 W 3 6 30.33 1027 10 16.0934 N/A
11:56 am 11:56 Sunny 52 11 23 -5 32 32 ESE 3 6 30.3 1026 10 16.0934 N/A
12:16 pm 12:16 Sunny 54 12 19 -7 26 26 SSE 3 6 30.3 1026 10 16.0934 N/A
12:36 pm 12:36 Sunny 55 13 21 -6 26 26 Calm 30.3 1026 10 16.0934 N/A
12:56 pm 12:56 Sunny 55 13 21 -6 26 26 WSW 3 6 30.3 1026 10 16.0934 N/A
1:15 pm 13:15 Sunny 55 13 21 -6 26 26 SE 5 7 30.3 1026 10 16.0934 N/A
1:36 pm 13:36 Sunny 57 14 18 -8 21 21 S 3 6 30.3 1026 10 16.0934 N/A
1:56 pm 13:56 Sunny 57 14 19 -7 23 23 E 3 6 30.24 1024 10 16.0934 N/A
2:15 pm 14:15 Sunny 57 14 16 -9 20 20 ENE 3 6 30.24 1024 10 16.0934 N/A
2:36 pm 14:36 Sunny 57 14 14 -10 18 18 WNW 3 6 30.24 1024 10 16.0934 N/A
2:56 pm 14:56 Sunny 59 15 12 -11 16 16 WSW 3 6 30.24 1024 10 16.0934 N/A
3:15 pm 15:15 Sunny 59 15 10 -12 14 14 Calm 30.24 1024 10 16.0934 N/A
3:36 pm 15:36 Sunny 61 16 14 -10 16 16 W 6 9 30.21 1023 10 16.0934 N/A
3:56 pm 15:56 Sunny 61 16 10 -12 13 13 Calm 30.21 1023 10 16.0934 N/A
4:16 pm 16:16 Sunny 59 15 9 -13 13 13 Calm 30.21 1023 10 16.0934 N/A
4:36 pm 16:36 Sunny 59 15 12 -11 16 16 NNE 3 6 30.21 1023 10 16.0934 N/A
4:55 pm 16:55 Sunny 61 16 9 -13 12 12 Calm 30.21 1023 10 16.0934 N/A
5:16 pm 17:16 Sunny 61 16 9 -13 12 12 Calm 30.21 1023 10 16.0934 N/A
5:36 pm 17:36 Sunny 61 16 9 -13 12 12 Calm 30.21 1023 10 16.0934 N/A
5:55 pm 17:55 Sunny 61 16 9 -13 12 12 SSE 3 6 30.18 1022 10 16.0934 N/A
6:16 pm 18:16 Sunny 61 16 10 -12 13 13 Calm 30.18 1022 10 16.0934 N/A
6:36 pm 18:36 Sunny 59 15 14 -10 17 17 NE 3 6 30.18 1022 10 16.0934 N/A
6:55 pm 18:55 Sunny 59 15 9 -13 13 13 ESE 5 7 30.18 1022 10 16.0934 N/A
7:16 pm 19:16 Sunny 59 15 12 -11 16 16 Calm 30.18 1022 10 16.0934 N/A
7:36 pm 19:36 Sunny 57 14 9 -13 14 14 Calm 30.18 1022 10 16.0934 N/A
7:56 pm 19:56 Sunny 57 14 14 -10 18 18 Calm 30.18 1022 10 16.0934 N/A
8:16 pm 20:16 Sunny 55 13 27 -3 33 33 Calm 30.21 1023 10 16.0934 N/A
8:35 pm 20:35 Clear 55 13 23 -5 28 28 S 5 7 30.21 1023 10 16.0934 N/A
8:56 pm 20:56 Clear 54 12 23 -5 30 30 S 3 6 30.21 1023 10 16.0934 N/A
9:16 pm 21:16 Clear 52 11 28 -2 41 41 ESE 5 7 30.21 1023 10 16.0934 N/A
9:35 pm 21:35 Clear 50 10 32 0 50 50 ESE 6 9 30.21 1023 10 16.0934 N/A
9:56 pm 21:56 Clear 48 9 32 0 54 54 ESE 5 7 30.21 1023 10 16.0934 N/A
10:16 pm 22:16 Clear 48 9 32 0 54 54 ESE 5 7 30.21 1023 10 16.0934 N/A
10:35 pm 22:35 Clear 46 8 34 1 62 62 SSE 3 6 30.24 1024 10 16.0934 N/A
10:56 pm 22:56 Clear 50 10 28 -2 43 43 SE 3 6 30.21 1023 10 16.0934 N/A
11:16 pm 23:16 Clear 48 9 32 0 54 54 Calm 30.24 1024 10 16.0934 N/A
11:35 pm 23:35 Clear 48 9 27 -3 43 43 SE 3 6 30.21 1023 10 16.0934 N/A
11:56 pm 23:56 Clear 48 9 27 -3 43 43 SE 3 6 30.21 1023 10 16.0934 N/A

Powered by AerisWeather